DW4212 La Cabrera ES current weather conditions

sailwx.info

Wind from 222

Air temperature 32.8° C
Dewpoint 7.6° C

Last reported at 2017-Aug-23 17:09 UTC.
Time now 2017-Aug-23 17:46 UTC

Location: N 40°53' W 003°35'.
View on Google Maps.

See reports from other nearby stations

  
Tides and Currents Weather Stations Pressure Air Temp Water Temp Dewpoint Dewpoint Depression Visibility Wind Speed Wind Dir Waves Ship Positions
date/time (UTC)wind fromknots sea level pressurealtimeterstation pressurevisibilityair tempwater tempwave heightnotes
2017-Aug-23 17:09 222 32.8
2017-Aug-23 16:59 252 1 gusting 5 32.8
2017-Aug-23 16:49 208 0 gusting 3 32.8
2017-Aug-23 16:39 194 0 gusting 6 32.8
2017-Aug-23 16:29 252 0 gusting 6 32.2
2017-Aug-23 16:19 246 0 gusting 4 32.8
2017-Aug-23 16:09 248 1 gusting 8 32.8
2017-Aug-23 15:59 190 32.8
2017-Aug-23 15:49 225 0 gusting 5 32.8
2017-Aug-23 15:39 257 2 gusting 8 32.8
2017-Aug-23 15:29 211 0 gusting 7 32.8
2017-Aug-23 15:19 237 32.8
2017-Aug-23 15:09 201 32.8
2017-Aug-23 15:00 190 1 gusting 6 32.8
2017-Aug-23 14:49 223 0 gusting 4 32.8
2017-Aug-23 14:39 240 1 gusting 4 32.8
2017-Aug-23 14:29 186 0 gusting 6 33.3
2017-Aug-23 14:19 209 2 gusting 6 33.9
2017-Aug-23 14:09 211 1 gusting 6 33.9
2017-Aug-23 13:59 233 1 gusting 6 33.9
2017-Aug-23 13:49 220 1 gusting 6 32.8
2017-Aug-23 13:39 204 2 gusting 6 32.2
2017-Aug-23 13:29 179 0 gusting 6 32.2
2017-Aug-23 13:09 184 3 gusting 8 32.8
2017-Aug-23 12:59 198 1 gusting 8 32.2
2017-Aug-23 12:49 198 1 gusting 6 31.7
2017-Aug-23 12:39 194 0 gusting 5 31.7
2017-Aug-23 12:29 196 1 gusting 6 32.2
2017-Aug-23 12:19 195 2 gusting 6 32.2
2017-Aug-23 12:09 186 0 gusting 6 32.2
2017-Aug-23 11:59 194 0 gusting 6 31.7
2017-Aug-23 11:49 178 0 gusting 6 31.7
2017-Aug-23 11:29 188 0 gusting 6 31.7
2017-Aug-23 11:19 180 0 gusting 5 31.7
2017-Aug-23 11:09 185 31.1
2017-Aug-23 10:59 184 1 gusting 4 31.1
2017-Aug-23 10:49 195 0 gusting 6 30.6
2017-Aug-23 10:39 182 29.4
2017-Aug-23 10:29 174 0 gusting 6 28.9
2017-Aug-23 10:19 181 0 gusting 5 28.3
2017-Aug-23 10:09 187 28.9
2017-Aug-23 09:59 186 0 gusting 4 29.4
2017-Aug-23 09:49 196 0 gusting 4 28.9
2017-Aug-23 09:39 195 28.9
2017-Aug-23 09:29 195 0 gusting 5 28.3
2017-Aug-23 09:19 175 28.3
2017-Aug-23 09:09 174 27.8
2017-Aug-23 08:59 122 27.2
2017-Aug-23 08:49 122 27.2
2017-Aug-23 08:39 105 26.7
2017-Aug-23 08:29 090 26.1
2017-Aug-23 08:19 090 25.6
2017-Aug-23 08:09 090 25.0
2017-Aug-23 07:59 176 25.0
2017-Aug-23 07:49 187 24.4
2017-Aug-23 07:39 198 23.9
2017-Aug-23 07:29 198 23.9
2017-Aug-23 07:19 198 23.9
2017-Aug-23 07:09 198 22.8
2017-Aug-23 06:59 198 21.1
2017-Aug-23 06:49 198 20.6
2017-Aug-23 06:39 198 20.0
2017-Aug-23 06:29 198 20.0
2017-Aug-23 06:19 198 20.0
2017-Aug-23 06:09 198 19.4
2017-Aug-23 06:00 198 19.4
2017-Aug-23 05:49 198 20.0
2017-Aug-23 05:39 198 20.0
2017-Aug-23 05:29 198 20.0
2017-Aug-23 05:19 198 20.0
2017-Aug-23 05:09 198 20.0
2017-Aug-23 04:59 198 20.0
2017-Aug-23 04:49 202 0 gusting 2 20.6
2017-Aug-23 04:39 324 20.6
2017-Aug-23 04:29 324 20.6
2017-Aug-23 04:19 324 21.1
2017-Aug-23 04:09 324 21.7
2017-Aug-23 03:59 324 21.7
2017-Aug-23 03:49 324 21.7
2017-Aug-23 03:39 324 21.7
2017-Aug-23 03:19 324 21.7
2017-Aug-23 03:09 324 21.7
2017-Aug-23 02:59 338 1 gusting 3 21.7
2017-Aug-23 02:49 360 21.7
2017-Aug-23 02:39 005 0 gusting 3 21.7
2017-Aug-23 02:30 013 21.7
2017-Aug-23 02:19 005 22.2
2017-Aug-23 02:09 344 24.4
2017-Aug-23 01:59 344 25.0
2017-Aug-23 01:49 344 25.6
2017-Aug-23 01:39 342 25.6
2017-Aug-23 01:29 342 26.1
2017-Aug-23 01:19 011 26.1
2017-Aug-23 01:09 350 0 gusting 3 26.1
2017-Aug-23 00:59 355 0 gusting 5 26.1
2017-Aug-23 00:49 350 1 gusting 5 25.6
2017-Aug-23 00:39 338 0 gusting 5 25.6
2017-Aug-23 00:29 360 0 gusting 5 25.0
2017-Aug-23 00:19 344 24.4
2017-Aug-23 00:09 360 0 gusting 3 24.4
2017-Aug-22 23:59 355 1 gusting 3 25.0
2017-Aug-22 23:49 349 1 gusting 3 25.0
2017-Aug-22 23:39 344 0 gusting 3 25.0
2017-Aug-22 23:29 360 0 gusting 3 25.0
2017-Aug-22 23:19 355 1 gusting 2 25.0
2017-Aug-22 23:09 355 0 gusting 2 25.6
2017-Aug-22 22:59 355 0 gusting 3 26.1
2017-Aug-22 22:49 330 26.1
2017-Aug-22 22:39 340 25.6
2017-Aug-22 22:29 338 0 gusting 3 25.0
2017-Aug-22 22:19 355 25.6
2017-Aug-22 22:09 348 26.1
2017-Aug-22 21:59 348 26.1
2017-Aug-22 21:49 349 0 gusting 1 26.1
2017-Aug-22 21:29 304 0 gusting 4 26.7
2017-Aug-22 21:19 265 26.7
2017-Aug-22 21:09 259 0 gusting 1 26.7
2017-Aug-22 20:59 258 27.2
2017-Aug-22 20:49 257 27.2
2017-Aug-22 20:39 257 27.8
2017-Aug-22 20:29 257 28.3
2017-Aug-22 20:19 257 28.9
2017-Aug-22 20:09 257 28.9
2017-Aug-22 19:59 257 28.9
2017-Aug-22 19:39 221 29.4
2017-Aug-22 19:29 221 29.4
2017-Aug-22 19:19 221 30.0
2017-Aug-22 19:09 221 30.0
2017-Aug-22 18:59 221 30.6
2017-Aug-22 18:49 207 30.6
2017-Aug-22 18:39 202 30.6
2017-Aug-22 18:29 202 31.1
2017-Aug-22 18:19 200 31.1
2017-Aug-22 18:09 197 31.7
2017-Aug-22 17:59 232 31.7
2017-Aug-22 17:39 259 0 gusting 6 32.2
2017-Aug-22 17:29 201 0 gusting 5 32.2
2017-Aug-22 17:19 225 0 gusting 4 32.8
2017-Aug-22 17:09 211 0 gusting 5 33.3
2017-Aug-22 16:59 212 0 gusting 5 33.9
2017-Aug-22 16:49 237 0 gusting 5 33.9
2017-Aug-22 16:39 213 0 gusting 6 33.3
2017-Aug-22 16:29 203 2 gusting 6 33.3
2017-Aug-22 16:19 255 0 gusting 10 33.3
2017-Aug-22 16:09 199 3 gusting 8 33.3
2017-Aug-22 15:59 246 0 gusting 6 33.9
2017-Aug-22 15:49 202 2 gusting 6 33.3
2017-Aug-22 15:39 198 1 gusting 6 33.3
2017-Aug-22 15:19 190 32.8
2017-Aug-22 15:09 198 1 gusting 6 33.9
2017-Aug-22 14:59 236 0 gusting 10 34.4
2017-Aug-22 14:49 239 0 gusting 6 34.4
2017-Aug-22 14:09 238 2 gusting 7 33.3
2017-Aug-22 13:59 180 4 gusting 8 33.3
2017-Aug-22 13:49 202 0 gusting 7 33.3
2017-Aug-22 13:39 252 1 gusting 6 33.3
2017-Aug-22 13:29 250 0 gusting 7 33.9
2017-Aug-22 13:19 273 1 gusting 8 33.9
2017-Aug-22 13:09 213 0 gusting 8 33.9
2017-Aug-22 12:59 192 2 gusting 6 33.3
2017-Aug-22 12:49 188 1 gusting 10 32.8
2017-Aug-22 12:39 186 3 gusting 8 32.2
2017-Aug-22 12:29 183 1 gusting 7 32.8
2017-Aug-22 12:19 204 1 gusting 6 32.2
2017-Aug-22 12:09 195 1 gusting 6 32.2
2017-Aug-22 11:49 184 1 gusting 6 31.7
2017-Aug-22 11:39 178 0 gusting 6 31.1
2017-Aug-22 11:29 190 1 gusting 6 31.7
2017-Aug-22 11:19 196 31.1
2017-Aug-22 11:09 202 1 gusting 6 31.1
2017-Aug-22 10:49 188 30.0
2017-Aug-22 10:39 178 1 gusting 6 30.0
2017-Aug-22 10:29 191 29.4
2017-Aug-22 10:19 192 2 gusting 6 29.4
2017-Aug-22 10:09 186 29.4
2017-Aug-22 09:59 190 1 gusting 4 28.9
2017-Aug-22 09:49 188 1 gusting 4 28.9
2017-Aug-22 09:39 184 0 gusting 5 28.3
2017-Aug-22 09:29 184 0 gusting 5 28.3
2017-Aug-22 09:19 186 0 gusting 4 27.8
2017-Aug-22 09:09 188 27.8
2017-Aug-22 08:59 190 27.2
2017-Aug-22 08:49 218 26.7
2017-Aug-22 08:39 218 26.1
2017-Aug-22 08:29 218 25.6
2017-Aug-22 08:19 218 25.0
2017-Aug-22 08:09 218 24.4
2017-Aug-22 07:59 219 23.9
2017-Aug-22 07:49 220 23.3
2017-Aug-22 07:39 220 23.3
2017-Aug-22 07:29 220 22.2
2017-Aug-22 07:19 220 22.2
2017-Aug-22 07:09 220 21.7
2017-Aug-22 06:59 220 21.1
2017-Aug-22 06:49 220 21.1
2017-Aug-22 06:39 220 20.6
2017-Aug-22 06:29 220 19.4
2017-Aug-22 06:19 220 19.4
2017-Aug-22 06:09 220 19.4
2017-Aug-22 05:59 220 19.4
2017-Aug-22 05:49 220 20.0
2017-Aug-22 05:39 220 20.0
2017-Aug-22 05:29 220 20.0
2017-Aug-22 05:19 214 20.0
2017-Aug-22 05:09 211 20.0
2017-Aug-22 04:59 211 20.6
2017-Aug-22 04:49 211 20.6
2017-Aug-22 04:29 211 20.6
2017-Aug-22 04:19 207 0 gusting 2 20.0
2017-Aug-22 04:09 205 20.0
2017-Aug-22 03:49 200 20.6
2017-Aug-22 03:39 190 20.6
2017-Aug-22 03:29 190 20.6
2017-Aug-22 03:19 190 20.6
2017-Aug-22 03:09 190 21.1
2017-Aug-22 02:59 190 21.1
2017-Aug-22 02:49 190 21.1
2017-Aug-22 02:39 190 21.1
2017-Aug-22 02:29 190 21.7
2017-Aug-22 02:19 190 21.7
2017-Aug-22 02:09 190 21.7
2017-Aug-22 01:59 190 21.7
2017-Aug-22 01:49 190 22.2
2017-Aug-22 01:39 190 22.2
2017-Aug-22 01:29 190 22.2
2017-Aug-22 01:19 190 22.8
2017-Aug-22 01:09 190 22.8
2017-Aug-22 00:59 190 23.3
2017-Aug-22 00:49 190 23.3
2017-Aug-22 00:39 190 23.3
2017-Aug-22 00:30 190 0 gusting 3 23.9
2017-Aug-22 00:19 191 0 gusting 4 23.9
2017-Aug-22 00:09 188 23.9
2017-Aug-21 23:59 188 23.9
2017-Aug-21 23:49 188 23.9
2017-Aug-21 23:39 188 23.9
2017-Aug-21 23:29 188 24.4
2017-Aug-21 23:19 188 24.4
2017-Aug-21 23:09 188 25.0
2017-Aug-21 22:59 188 25.0
2017-Aug-21 22:49 188 25.0
2017-Aug-21 22:39 188 25.0
2017-Aug-21 22:29 188 25.0
2017-Aug-21 22:19 188 25.6
2017-Aug-21 22:09 188 25.6
2017-Aug-21 21:59 188 25.6
2017-Aug-21 21:49 188 26.1
2017-Aug-21 21:39 188 26.7
2017-Aug-21 21:29 188 26.7
2017-Aug-21 21:19 188 26.7
2017-Aug-21 21:09 188 27.2
2017-Aug-21 20:59 188 27.2
2017-Aug-21 20:49 188 27.2
2017-Aug-21 20:39 188 27.2
2017-Aug-21 20:29 188 27.2
2017-Aug-21 20:19 188 27.8
2017-Aug-21 20:09 188 27.8
2017-Aug-21 19:59 188 28.3
2017-Aug-21 19:49 188 28.3
2017-Aug-21 19:39 188 28.9
2017-Aug-21 19:29 188 28.9
2017-Aug-21 19:19 188 29.4
2017-Aug-21 19:09 188 29.4
2017-Aug-21 18:59 188 30.0
2017-Aug-21 18:49 188 30.0
2017-Aug-21 18:39 188 30.6
2017-Aug-21 18:19 182 31.1
2017-Aug-21 18:09 174 1 gusting 6 31.7
2017-Aug-21 17:59 181 0 gusting 6 31.7
2017-Aug-21 17:49 185 0 gusting 6 32.2
2017-Aug-21 17:39 213 32.2
2017-Aug-21 17:29 184 0 gusting 6 32.2
2017-Aug-21 17:19 183 1 gusting 9 32.2
2017-Aug-21 17:09 173 1 gusting 6 32.8